Location: Bergnersreuth
(50.0674°N, 12.1520°E)
Time: 06:01:34
(UTC+00:00)

Daily predictions for brighter satellites

Satellite Brightness Start Highest point End
(mag) Time Altitude Azimuth Time Altitude Azimuth Time Altitude Azimuth
Cosmos 1833 Rocket 2.9 18:58:19 10° SSW 19:03:57 80° WNW 19:09:37 10° NNE
Cosmos 1697 Rocket 3.7 19:00:23 10° NW 19:05:44 46° WSW 19:11:03 10° S
GP-B 4.1 19:02:30 10° NNE 19:06:20 28° E 19:10:09 10° SE
USA 238 DEB 3.8 19:00:59 10° SSW 19:07:19 50° ESE 19:13:55 10° NE
MOS 1 Rocket 4.1 19:01:54 10° N 19:07:20 70° WNW 19:12:33 10° SSW
USA 238 3.8 19:01:06 10° SSW 19:07:25 50° ESE 19:14:01 10° NE
SPOT 3 Rocket 3.6 19:02:42 10° SSE 19:07:51 67° ENE 19:13:01 10° N
IRIDIUM 114 4.4 19:03:06 10° S 19:08:20 87° W 19:13:35 10° N
Cosmos 1867 3.6 19:03:56 10° SSW 19:09:21 72° SE 19:14:49 10° NE
CENTAUR R/B 3.1 19:05:55 10° S 19:11:08 33° ESE 19:17:11 10° NE
Cosmos 1666 Rocket 3.5 19:06:59 10° S 19:11:16 66° E 19:15:36 10° NNE
DMSP B5D2-2 4.1 19:08:28 10° NNE 19:13:44 72° ESE 19:18:58 10° S
Cosmos 1954 Rocket 4.1 19:08:51 10° S 19:14:04 58° ESE 19:19:17 10° NNE
Spot 2 Rocket 4.4 19:11:31 10° SE 19:16:01 33° ENE 19:20:31 10° N
FREGAT/IRIS 4.1 19:15:21 10° SSW 19:17:45 31° W 19:20:11 10° NNW
Intercosmos 25 3.8 19:14:31 10° NNW 19:18:17 54° W 19:21:25 10° S
Ariane Rocket 4.0 19:13:58 10° S 19:18:51 49° W 19:23:47 10° NNW
Cosmos 1821 Rocket 4.1 19:12:40 10° S 19:18:51 83° W 19:25:11 10° N
Cosmos 405 Rocket 3.7 19:16:04 10° SSE 19:19:10 26° E 19:22:22 10° NE
Cosmos 1812 4.3 19:16:09 10° NNW 19:19:43 37° W 19:23:16 10° SSW
Okean 1-7 4.3 19:18:10 10° NNE 19:21:45 25° ENE 19:25:00 11° ESE
Cosmos 407 Rocket 4.1 19:19:14 10° SW 19:24:30 63° WNW 19:29:44 10° NNE
SJ-6B 4.1 19:23:01 10° S 19:26:49 41° W 19:30:34 10° NNW
Cosmos 2333 Rocket 4.1 19:23:49 10° N 19:27:49 19° NE 19:31:47 10° ENE
Cosmos 1763 Rocket 3.8 19:23:01 10° NNW 19:28:18 57° ENE 19:33:12 12° SE
Cosmos 1190 Rocket 4.4 19:23:24 10° SSW 19:28:41 70° WNW 19:34:01 10° NNE
Cosmos 1437 Rocket 3.7 19:25:48 10° N 19:29:10 30° ENE 19:31:55 14° SE
deb Kosmos-1763 4.5 19:26:16 10° SSW 19:29:52 66° WNW 19:33:32 10° NNE
Cosmos 1140 Rocket 3.9 19:25:16 10° SSW 19:30:30 70° WNW 19:35:47 10° NNE
FALCON 9 DEB 3.5 19:27:50 10° W 19:31:20 66° NNW 19:34:50 10° ENE
Resurs 1-3 3.8 19:27:27 10° S 19:31:50 74° WSW 19:36:15 10° NNW
Cosmos 1703 Rocket 4.4 19:27:55 10° N 19:31:53 33° ENE 19:35:10 14° SE
H-2A R/B 4.2 19:30:32 10° NNE 19:34:16 32° E 19:38:01 10° SSE
OBJECT-B 1.5 19:31:13 10° S 19:34:27 54° W 19:37:42 10° NNW
Cosmos 2084 Rocket 4.0 19:32:11 10° S 19:36:00 34° ESE 19:39:54 10° ENE
Cosmos 1633 Rocket 3.2 19:33:43 10° SSW 19:38:08 81° WNW 19:42:34 10° N
Cosmos 1184 Rocket 2.7 19:35:40 10° S 19:38:58 89° ESE 19:42:17 10° NNE
Landsat 7 4.2 19:36:27 13° SE 19:40:31 48° ENE 19:45:06 10° N
Cosmos 921 Rocket 3.1 19:36:33 10° NNW 19:40:45 71° WSW 19:44:53 10° S
SPOT 5 4.1 19:38:25 13° ESE 19:41:15 24° ENE 19:44:48 10° N
Cosmos 2123 Rocket 4.2 19:35:30 10° NNW 19:41:44 77° W 19:48:00 10° S
Cosmos 1535 Rocket 4.5 19:38:29 10° S 19:44:37 90° WSW 19:50:46 10° N
MetOp-B 4.2 19:40:53 10° SSE 19:46:07 72° ENE 19:51:29 10° NNW
Meteor 1-19 Rocket 4.2 19:44:55 10° N 19:50:19 63° ENE 19:54:58 14° SSE
Okean 1 3.3 19:48:54 10° N 19:52:58 69° ENE 19:56:08 16° SSE
Cosmos 1605 Rocket 3.9 19:46:58 10° S 19:53:01 74° E 19:59:07 10° NNE
CZ-2C R/B 3.4 19:48:14 10° N 19:53:17 53° WNW 19:58:22 10° SW
ERBS 4.3 19:50:59 10° NW 19:53:48 25° N 19:56:36 10° ENE
USA 267 3.8 19:51:01 10° ENE 19:56:51 33° SE 20:02:39 10° SSW
NOSS 3-2 (A) 3.5 19:51:34 10° SW 19:57:22 88° NW 20:04:06 10° NE
Cosmos 2219 Rocket 3.8 19:53:47 10° NNW 19:58:19 23° NE 20:02:41 10° E
Meteor 2-4 Rocket 4.1 19:53:29 10° N 19:58:55 47° ENE 20:02:35 19° SE
Lacrosse 4 Rocket 3.5 20:01:22 11° E 20:01:22 11° E 20:01:55 10° ENE
Cosmos 540 Rocket 3.7 19:56:07 10° NNW 20:01:14 56° ENE 20:04:39 20° SE
SL-16 R/B 2.2 19:56:26 10° NNW 20:02:10 90° ENE 20:06:27 18° SSE
SL-4 R/B 2.1 20:00:10 10° W 20:04:09 68° N 20:07:24 13° E
BREEZE-M DEB (TANK) 2.5 20:02:03 10° W 20:04:51 83° S 20:12:30 10° E
Cosmos 2242 Rocket 3.5 20:01:09 10° N 20:05:36 88° W 20:09:07 16° S
SL-27 R/B 2.5 20:04:28 19° S 20:06:35 46° ESE 20:09:46 10° NNE
Cosmos 1470 Rocket 3.8 20:03:35 10° SSW 20:07:58 71° WNW 20:12:20 10° N
NOSS 3-2 (C) 3.3 20:02:16 10° SSW 20:08:01 74° SE 20:14:39 10° NE
BREEZE-M DEB (TANK) 1.4 20:09:53 10° W 20:12:16 65° S 20:12:31 56° SE
Cosmos 2082 Rocket 3.4 20:07:16 10° SW 20:12:42 45° NW 20:18:08 10° NNE
Cosmos 1459 Rocket 4.5 20:09:17 18° SSE 20:13:31 43° E 20:19:28 10° NNE
Cosmos 1242 Rocket 4.5 20:13:39 10° NNE 20:16:04 17° ENE 20:16:53 16° E
ERS-1 Rocket 3.1 20:16:14 24° SE 20:19:12 60° ENE 20:24:10 10° N
Cosmos 2322 Rocket 2.2 20:13:45 10° NNW 20:19:29 83° WSW 20:23:14 22° SSE
Meteor 1-14 Rocket 4.3 20:13:56 10° S 20:19:48 75° E 20:25:47 10° NNE
Cosmos 967 Rocket 4.5 20:16:47 10° NW 20:23:13 89° SW 20:27:10 25° SE
Cosmos 1850 Rocket 4.0 20:19:37 10° SSW 20:24:55 89° SE 20:30:13 10° NNE
Cosmos 2221 Rocket 4.3 20:22:18 10° N 20:26:31 38° ENE 20:28:09 28° ESE
Cosmos 1500 3.4 20:25:36 35° SE 20:26:45 49° E 20:30:24 10° NNE
Cosmos 841 Rocket 3.5 20:21:38 10° NNW 20:26:55 89° ENE 20:29:56 26° SSE
SPOT 1/Viking Rocket 3.6 20:23:32 21° SSE 20:27:10 84° WSW 20:32:26 10° NNW
Cosmos 1536 4.3 20:27:23 21° E 20:27:24 21° E 20:30:23 10° NE
Cosmos 2360 Rocket 2.3 20:23:00 10° NNW 20:28:42 69° ENE 20:31:48 28° SE
USA 276 3.1 20:27:03 10° W 20:29:56 32° SSW 20:30:10 31° SSW
Terra 2.2 20:27:56 28° SE 20:30:04 48° ENE 20:34:40 10° N
Okean 3 3.8 20:26:24 10° N 20:30:36 49° ENE 20:32:07 33° SE
X-37B 2.5 20:28:27 10° WSW 20:30:22 18° SSW 20:30:22 18° SSW
IGS 5A 4.0 20:29:39 20° S 20:32:24 55° W 20:36:31 10° NNW
Cosmos 2237 4.2 20:27:09 10° NNW 20:32:54 80° ENE 20:35:58 29° SE
ATLAS 3B R/B 2.8 20:26:57 10° S 20:33:10 46° ESE 20:39:27 10° NE
Cosmos 1238 Rocket 3.8 20:30:52 10° SW 20:33:34 33° WNW 20:36:25 10° N
USA 234 3.3 20:29:00 20° ESE 20:33:50 78° NNE 20:40:24 10° WNW
Cosmos 1980 Rocket 4.5 20:33:06 10° WNW 20:36:44 18° W 20:40:21 10° SW
Cosmos 1666 3.6 20:37:36 30° E 20:37:36 30° E 20:40:54 10° NNE
COSMOS 2487 4.3 20:39:02 18° ENE 20:39:02 18° ENE 20:40:25 10° NE
Cosmos 44 3.9 20:33:13 10° NW 20:38:00 51° WSW 20:40:36 26° S
Lacrosse 5 3.3 20:35:12 10° WNW 20:39:28 28° SW 20:41:50 19° S
Resurs 01 Rocket 3.6 20:35:57 10° SSW 20:39:36 25° W 20:43:18 10° NW
Iridium 4 Rocket 3.3 20:38:44 37° SE 20:39:50 47° E 20:43:50 10° NNE
CARTOSAT-1 3.5 20:40:31 33° SSE 20:42:25 87° WSW 20:46:47 10° NNW
Cosmos 2061 Rocket 4.1 20:50:45 31° SSE 20:53:39 56° E 20:59:42 10° NNE
Cosmos 1814 Rocket 4.1 20:49:22 10° NNW 20:54:33 69° WSW 20:56:56 33° S
Spot 2 Rocket 4.5 20:51:18 17° SSW 20:54:53 42° W 20:59:43 10° NNW
COSMOS 2428 3.5 20:49:40 10° NNW 20:55:09 43° NE 20:57:48 27° ESE
Cosmos 1802 Rocket 4.0 20:54:58 27° S 20:58:38 72° E 21:04:57 10° NNE
Cosmos 2237 Rocket 3.9 20:54:46 10° NNW 20:59:19 24° NE 21:02:46 14° E
Okean 1-7 4.2 20:55:27 10° NNW 20:59:27 37° W 21:01:51 20° SSW
Cosmos 1869 Rocket 3.7 20:57:44 26° SSW 21:00:10 73° W 21:04:40 10° N
CENTAUR R/B 3.0 20:55:11 10° WSW 21:01:18 67° NW 21:08:39 10° NE
Cosmos 44 Rocket 3.8 20:57:24 10° NW 21:02:17 53° NE 21:04:15 33° ESE
Cosmos 1816 Rocket 4.5 21:00:15 10° N 21:06:31 69° ENE 21:09:03 37° SSE
FALCON 9 DEB 3.9 21:05:13 10° WNW 21:08:39 52° N 21:09:36 38° ENE
Cosmos 1271 Rocket 3.8 21:05:57 10° N 21:09:21 30° ENE 21:09:24 30° ENE
Cosmos 2333 Rocket 2.4 21:07:29 10° NNW 21:13:15 66° ENE 21:15:19 39° SE
Cosmos 1674 Rocket 3.8 21:09:08 10° N 21:13:23 51° ENE 21:13:54 48° ESE
ATLAS 5 CENTAUR R/B 2.0 21:10:53 10° NW 21:13:38 81° SW 21:14:58 46° SE
SPOT 5 3.4 21:17:39 33° SSW 21:19:05 45° W 21:23:23 10° NNW
Cosmos 1066 Rocket 4.1 21:14:07 10° N 21:19:48 76° ENE 21:21:30 46° SSE
Cosmos 1486 Rocket 4.1 21:22:07 48° SE 21:22:39 50° ESE 21:27:40 10° NNE
CRYOSAT 2 4.4 21:24:45 10° N 21:29:36 60° E 21:30:14 55° SE
Cosmos 1733 Rocket 2.9 21:29:41 69° SSE 21:30:08 79° E 21:34:35 10° NNE
Cosmos 1356 3.8 21:30:29 62° WNW 21:30:29 62° WNW 21:33:46 10° N
ERBS 3.0 21:27:18 10° NW 21:30:13 52° N 21:30:13 52° N
Meteor 1-11 Rocket 3.8 21:31:46 35° SSW 21:34:19 79° WNW 21:40:11 10° N
Cosmos 489 Rocket 4.4 21:28:21 10° NNW 21:34:42 78° ENE 21:36:44 46° SE
Tsikada Rocket 4.0 21:30:09 10° N 21:36:32 84° W 21:38:46 43° S
Cosmos 968 Rocket 3.5 21:37:25 56° SE 21:37:45 57° ESE 21:42:48 10° NNE
Lacrosse 4 Rocket 1.3 21:37:37 71° SW 21:38:03 86° WNW 21:42:15 10° NNE
Cosmos 2227 Rocket 4.3 21:40:11 12° E 21:40:11 12° E 21:41:18 10° ENE
ALOS 2 3.8 21:39:37 29° ENE 21:40:02 30° ENE 21:43:52 10° N
USA 267 3.2 21:33:48 10° ENE 21:40:23 89° SSE 21:46:57 10° WSW
Cosmos 2219 Rocket 2.1 21:37:18 10° NNW 21:43:03 88° WSW 21:44:23 55° SSE
SL-4 R/B 2.4 21:40:04 10° WNW 21:42:58 50° WNW 21:42:58 50° WNW
SL-16 R/B 4.3 21:41:59 10° WNW 21:45:28 17° W 21:48:19 12° SW
Cosmos 1242 Rocket 3.4 21:47:41 10° NNW 21:50:53 43° W 21:50:53 43° W
Cosmos 2322 4.1 21:50:50 10° NW 21:56:19 52° WSW 21:57:25 45° SSW
Cosmos 1725 Rocket 4.3 21:55:18 32° SSW 21:58:14 64° WNW 22:04:34 10° N
Spot 4 3.7 21:58:19 72° SE 21:58:45 81° ENE 22:03:37 10° NNW
Cosmos 1842 4.0 21:58:37 10° N 22:01:52 45° NE 22:01:52 45° NE
Cosmos 2322 Rocket 4.3 21:59:31 10° WNW 22:02:39 15° W 22:05:03 12° SW
Cosmos 1536 3.9 22:03:04 36° W 22:03:35 38° WNW 22:07:20 10° N
Cosmos 1908 Rocket 3.7 22:04:50 65° ENE 22:04:50 65° ENE 22:08:47 10° NNE
Cosmos 1378 Rocket 3.7 22:00:22 10° NNW 22:04:47 64° W 22:04:52 64° WSW
Terra 3.4 22:06:49 22° WSW 22:08:03 25° W 22:11:58 10° NW
Cosmos 2344 4.4 21:59:13 10° NW 22:08:10 69° NE 22:17:17 20° ESE
Cosmos 2360 Rocket 3.8 22:07:51 10° NW 22:12:10 23° WSW 22:13:33 21° WSW
COSMOS 2487 4.1 22:12:29 29° WNW 22:12:35 30° WNW 22:15:41 10° N
SL-16 R/B 3.6 22:09:55 10° NNW 22:14:57 31° NE 22:17:41 21° E
USA 234 3.6 22:16:20 42° SSW 22:17:10 44° SW 22:23:23 10° WNW
MOS 1-B Rocket 3.9 22:15:56 10° NNE 22:21:31 70° WNW 22:23:10 46° SW
Cosmos 1378 4.5 22:18:26 10° NNW 22:21:16 34° WNW 22:21:16 34° WNW
ATLAS 3B R/B 3.3 22:17:23 10° WSW 22:23:49 53° NW 22:30:23 10° NE
Cosmos 1354 Rocket 3.9 22:23:57 76° SSE 22:24:18 81° ESE 22:29:40 10° NNE
Cosmos 1975 Rocket 3.2 22:23:06 10° N 22:27:17 73° NNE 22:27:17 73° NNE
Cosmos 1544 4.2 22:30:39 44° N 22:30:39 44° N 22:33:18 10° N
SL-24 DEB 4.5 22:25:13 10° N 22:29:43 60° ENE 22:29:43 60° ENE
Cosmos 2297 Rocket 3.1 22:32:12 35° E 22:32:12 35° E 22:36:46 10° NE
Meteor 1-21 4.1 22:26:24 10° NNW 22:32:14 86° ENE 22:33:00 69° SSE
Thor Agena Rocket 3.4 22:29:24 10° NNE 22:34:31 79° WNW 22:35:03 70° SW
Cosmos 1743 3.8 22:35:21 41° WNW 22:35:21 41° WNW 22:38:43 10° N
Okean 2 3.9 22:31:02 10° NNW 22:34:30 55° NW 22:34:30 55° NW
Cosmos 1975 3.4 22:36:14 56° N 22:36:14 56° N 22:39:29 10° N
Meteor 2-9 Rocket 4.1 22:35:06 69° SE 22:35:39 76° E 22:41:27 10° NNE
Cosmos 1980 3.5 22:30:37 10° NNW 22:36:21 89° WSW 22:36:58 72° SSE
Nimbus 7 Rocket 4.3 22:30:32 10° NNE 22:36:26 71° ESE 22:37:08 64° SSE
COSMOS 2428 3.4 22:34:07 10° NW 22:39:26 40° WSW 22:39:48 40° WSW
Timation 2 Rocket 3.8 22:39:51 63° SE 22:40:20 66° ESE 22:46:18 10° NE
Cosmos 1025 Rocket 3.8 22:38:51 10° N 22:42:31 43° NE 22:42:31 43° NE
Cosmos 2237 Rocket 2.0 22:38:25 10° NNW 22:44:06 84° WSW 22:44:34 75° S
Cosmos 2219 3.5 22:46:31 51° ESE 22:46:31 51° ESE 22:51:44 10° NE
SJ 16-02 3.7 22:47:38 14° ENE 22:47:38 14° ENE 22:49:01 10° ENE
Cosmos 1464 Rocket 3.8 22:46:12 64° S 22:47:12 82° E 22:53:24 10° N
NOSS 0 Rocket 4.1 22:45:08 10° NW 22:51:13 55° WSW 22:51:50 53° SW
Okean 2 Rocket 3.8 22:53:44 47° ENE 22:53:44 47° ENE 22:57:27 10° NNE
CENTAUR R/B 4.5 22:47:25 10° WNW 22:53:23 32° NNW 23:00:15 10° NE
Nadezhda 4 Rocket 3.9 22:47:34 10° N 22:53:53 80° E 22:54:56 63° SSE
Cosmos 2333 Rocket 3.6 22:52:29 10° NW 22:57:03 25° WSW 22:57:19 25° WSW
Cosmos 923 Rocket 4.5 23:01:36 10° NNW 23:06:50 53° ENE 23:07:42 47° E
Sich 1 Rocket 3.9 23:15:13 59° NW 23:15:13 59° NW 23:19:06 10° N
DNEPR-1 R/B 4.2 23:09:22 10° NW 23:14:43 60° W 23:14:43 60° W
Cosmos 1092 Rocket 3.9 23:09:24 10° N 23:15:39 74° E 23:16:44 60° SE
ALOS 2 3.8 23:17:00 33° WNW 23:17:00 33° WNW 23:20:21 10° NNW
Lacrosse 4 Rocket 4.0 23:14:28 10° WNW 23:17:21 18° NW 23:20:12 10° N
Helios 1A 3.5 23:18:09 58° NNW 23:18:09 58° NNW 23:21:37 10° NNW
Cosmos 1626 4.3 23:16:00 10° NNE 23:18:35 19° ENE 23:18:35 19° ENE
Cosmos 2034 Rocket 3.9 23:19:27 62° SSW 23:20:33 81° W 23:26:57 10° N
YAOGAN 11 4.3 23:22:19 73° NNW 23:22:19 73° NNW 23:26:30 10° NNW
Cosmos 2227 Rocket 2.1 23:22:00 70° SE 23:22:11 70° ESE 23:27:50 10° NNE
Cosmos 1707 3.9 23:19:04 10° NNW 23:21:46 38° NW 23:21:46 38° NW
Cosmos 1461 4.4 23:24:34 31° ENE 23:24:34 31° ENE 23:27:24 10° NE
USA 267 3.9 23:16:51 10° ENE 23:23:10 53° NNW 23:29:30 10° W
Cosmos 2151 Rocket 3.9 23:26:48 63° NNE 23:26:48 63° NNE 23:30:35 10° NNE
Cosmos 2219 Rocket 4.1 23:22:46 10° WNW 23:26:05 16° W 23:26:05 16° W
Meteor 1-12 Rocket 4.2 23:28:42 68° SSW 23:29:31 85° WNW 23:35:36 10° NNE
Cosmos 1536 Rocket 3.9 23:26:02 10° NNW 23:29:39 60° NNW 23:29:39 60° NNW
Resurs 1-4 Rocket 4.1 23:31:06 10° NE 23:34:26 17° E 23:35:32 16° ESE
Meteor 2-5 Rocket 4.1 23:30:16 10° N 23:35:46 53° ENE 23:36:53 46° ESE
Cosmos 1805 4.4 23:45:52 39° NE 23:45:52 39° NE 23:48:43 10° NNE
Cosmos 158 Rocket 4.0 23:40:42 10° NNW 23:46:08 83° ENE 23:46:39 73° SE
Cosmos 1607 4.0 23:40:45 10° NW 23:47:04 58° WSW 23:47:26 57° SW
Cosmos 2082 3.6 23:48:47 65° SE 23:49:05 66° ESE 23:54:41 10° NNE
Cosmos 1375 Rocket 4.5 23:48:19 60° SSW 23:49:36 82° SE 23:56:14 10° NE
Helios 1B rocket 3.0 23:50:53 10° NNE 23:54:18 54° NE 23:54:18 54° NE
PSLV R/B 3.7 23:50:24 10° NNE 23:55:06 84° NW 23:55:06 84° NW
